Погода в Тели

Китай     46°59′04″N   128°02′22″E
темп.,
°C
ветер,
м/с
пор.,
м/с
влажн.,
%
обл.,
%
осадки,
мм/ч
давл.,
гПа
погр.,
м
19 апреля, пн
пн1923:00+6ююв33510 0.0 100731
02:00+5юв22555 0.0 100718
05:00+4вюв22580 0.0 100622
08:00+11юз24370 0.0 1005438
11:00+17зюз45271 0.0 10041359
14:00+18сз99290 0.0 10032025
17:00+11ссз10135212 0.0 10081238
20:00+7ссз813320 0.0 1013937
20 апреля, вт
вт2023:00+4ссз611330 0.0 1017924
02:00+1ссз510340 0.0 1019504
05:00−1з38430 0.0 1021207
08:00+6зсз815230 0.0 10201730
11:00+10зсз913170 0.0 10192015
14:00+13зсз811142 0.0 10171860
17:00+13зсз58190 0.0 10161442
20:00+8юз33295 0.0 101719
21 апреля, ср
ср2123:00+7ю333319 0.0 101833
02:00+5ююв33350 0.0 101826
05:00+5юв33370 0.0 101832
08:00+14ю46230 0.0 1017438
11:00+21ююз451718 0.0 10161219
14:00+23ю56168 0.0 10141559
17:00+21ююв4722100 0.0 1013204
20:00+16вюв4828100 0.0 1013104
22 апреля, чт
чт2223:00+15ююв41037100 0.0 1014165
02:00+13ююв4837100 0.0 1015128
05:00+12ююв4934100 0.0 1017164
08:00+17ююз61027100 0.0 1018812
11:00+20юз6726100 0.0 10181225
14:00+20юз2425100 0.0 10181520
17:00+20юз2332100 0.0 101785
20:00+15з3540100 0.0 1019111
23 апреля, пт
пт2323:00+13сз3760100 0.0 1020277
02:00+12сз4967100 0.0 1022501
05:00+11сз3670100 0.0 1022178
08:00+11ссв6855100 0.0 1023468
11:00+11св4652100 0.0 1024322
14:00+14ссв6645100 0.0 1024935
17:00+8с81156100 0.0 1026424
20:00+8ссв71138100 0.0 1027654